Location: Kimberly
(42.5380°N, 114.3640°W)
Time: 16:30:37
(UTC-06:00)

Envisat - Visible Passes

Search period start: 17 June 2018 00:00
Search period end: 27 June 2018 00:00
Orbit: 764 x 766 km, 98.2° (Epoch: 17 June)

Date Brightness Start Highest point End Pass type
(mag) Time Alt. Az. Time Alt. Az. Time Alt. Az.
18 Jun 5.7 22:17:49 10° WSW 22:20:30 14° W 22:23:14 10° WNW visible
21 Jun 5.5 22:05:47 10° SW 22:09:14 18° W 22:12:42 10° NW visible
24 Jun 5.3 21:54:00 10° SW 21:57:58 23° W 22:01:58 10° NW visible
26 Jun 5.7 22:21:32 10° WSW 22:23:49 13° W 22:26:08 10° WNW visible
